Location: Beihingen
(48.5414°N, 8.6387°E)
Time: 08:38:53
(UTC+00:00)

Daily predictions for brighter satellites

Satellite Brightness Start Highest point End
(mag) Time Altitude Azimuth Time Altitude Azimuth Time Altitude Azimuth
Cosmos 2056 Rocket 4.4 19:32:27 10° N 19:37:32 39° ENE 19:42:30 10° SE
Lacrosse 5 2.0 19:33:02 10° NW 19:38:10 78° NE 19:43:18 10° ESE
USA 276 1.8 19:39:16 10° WNW 19:41:24 53° N 19:43:37 10° E
Ariane Rocket 4.2 19:37:38 10° ESE 19:41:56 29° ENE 19:46:15 10° N
IRS-1C Rocket 4.4 19:37:59 10° SE 19:43:05 52° ENE 19:48:12 10° N
CZ-4 R/B 3.7 19:40:28 10° SW 19:43:25 21° W 19:46:24 10° NW
Cosmos 44 3.9 19:38:41 10° NNW 19:43:27 45° NE 19:47:54 10° ESE
Lacrosse 5 rocket 1.7 19:39:40 10° SSW 19:43:46 46° SE 19:47:51 10° ENE
Cosmos 2369 Rocket 3.3 19:39:53 10° NNW 19:44:55 33° NE 19:49:55 10° ESE
Cosmos 1812 Rocket 3.7 19:40:54 10° S 19:45:14 59° E 19:49:35 10° NNE
CARTOSAT-1 4.4 19:42:04 10° S 19:46:12 49° W 19:50:22 10° NNW
ATLAS 5 CENTAUR R/B 3.8 19:42:36 10° WNW 19:46:58 27° WSW 19:52:04 10° S
CSL-04 Rocket 4.4 19:43:20 10° S 19:48:31 53° W 19:53:41 10° NNW
Cosmos 2221 3.5 19:46:58 10° SSE 19:50:41 29° E 19:54:26 10° NNE
Cosmos 2344 4.2 19:42:22 10° NW 19:50:41 88° SW 20:02:15 10° SE
Cosmos 2084 4.1 19:50:22 10° NNW 19:53:55 37° NE 19:57:26 10° ESE
Resurs 01 Rocket 3.0 19:50:32 10° SSW 19:54:41 39° W 19:58:52 10° NNW
USA 186 4.5 19:53:30 10° SW 19:55:47 18° W 19:58:06 10° NW
Cosmos 2237 Rocket 2.7 19:52:57 10° SW 19:58:38 69° WNW 20:04:21 10° NNE
BREEZE-M DEB (TANK) 2.4 19:56:30 10° SW 19:59:45 38° SSE 20:01:46 10° E
USA 308 3.4 19:57:55 10° W 20:00:11 25° SW 20:02:52 10° SSE
Cosmos 1378 2.9 19:57:57 10° S 20:01:10 53° E 20:04:23 10° NNE
ATLAS 3B R/B 3.1 19:54:15 10° NW 20:02:10 88° NE 20:09:48 11° SE
BREEZE-M DEB (TANK) 3.9 19:59:35 10° SW 20:03:02 44° SSE 20:11:19 10° E
Cosmos 921 Rocket 4.2 20:01:27 10° SSE 20:05:10 26° E 20:08:54 10° NE
Aureole 3 Rocket 3.2 20:02:58 10° N 20:06:27 49° E 20:10:55 10° SSE
Cosmos 1980 4.5 20:01:16 10° SW 20:06:48 57° WNW 20:12:24 10° NNE
Cosmos 923 Rocket 4.0 20:02:14 10° SSW 20:07:31 75° ESE 20:12:52 10° NNE
GEOS 3 Rocket 4.1 20:02:58 10° NE 20:07:44 36° ESE 20:12:25 10° S
SPOT 5 2.7 20:03:03 10° SSE 20:07:45 87° ENE 20:12:15 10° NNW
Meteor 2-21 Rocket 4.5 20:01:51 10° S 20:08:03 84° E 20:14:16 10° N
USA 306 4.2 20:05:05 10° WNW 20:08:32 35° N 20:12:08 10° ENE
Landsat 4 3.9 20:08:45 12° SE 20:11:46 47° ENE 20:15:09 10° N
Cosmos 1464 Rocket 4.4 20:06:14 10° NNW 20:12:30 66° W 20:18:39 10° S
ARGOS Delta rocket 4.1 20:09:56 10° SSE 20:15:01 61° ENE 20:19:51 10° N
Okean O Rocket 3.5 20:12:51 10° SSW 20:16:39 28° W 20:20:28 10° NW
USA 234 4.5 20:11:53 10° ENE 20:17:58 43° N 20:24:02 10° WNW
Terra 2.0 20:13:56 12° SSE 20:18:16 61° ENE 20:22:56 10° N
Cosmos 1656 Rocket 3.7 20:17:20 10° NNW 20:22:47 69° ENE 20:27:23 15° SE
Cosmos 1371 Rocket 4.1 20:17:59 10° NNW 20:23:22 84° ENE 20:28:04 14° SSE
ERS-1 Rocket 3.0 20:18:56 11° SSE 20:23:47 81° ENE 20:28:50 10° NNW
ATLAS 2AS CENTAUR R/B 3.4 20:18:54 10° WSW 20:26:12 62° NW 20:33:14 10° NE
SPOT 3 Rocket 3.7 20:24:07 14° SSE 20:28:30 61° ENE 20:33:34 10° N
Cosmos 1782 4.5 20:26:30 10° SW 20:29:57 33° WNW 20:33:27 10° N
USA 59 Rocket 2.4 20:28:56 10° N 20:30:41 13° NNE 20:32:38 10° NE
IRS-1A Rocket 4.5 20:25:38 10° S 20:31:18 73° WSW 20:36:53 10° NNW
USA 281 3.4 20:27:32 14° SE 20:33:13 67° ENE 20:39:46 10° NNW
Meteor 1-26 Rocket 4.5 20:27:21 10° S 20:33:24 87° W 20:39:29 10° N
Cosmos 1943 Rocket 3.7 20:29:49 10° NW 20:34:41 30° WSW 20:39:30 10° SSW
Cosmos 1420 Rocket 4.3 20:30:34 10° NNW 20:35:51 67° WSW 20:40:30 13° S
Cosmos 1743 2.5 20:35:17 10° N 20:38:55 79° E 20:41:25 19° SSE
ISS -3.0 20:37:14 10° WNW 20:40:30 52° N 20:43:45 10° E
NOSS 3-1 (A) 4.5 20:33:25 10° NW 20:40:39 59° WSW 20:48:11 14° SSE
USA 245 2.7 20:42:39 21° SSW 20:43:52 46° WSW 20:46:03 10° NNW
Cosmos 2279 Rocket 4.2 20:40:15 10° N 20:46:22 59° ENE 20:50:54 19° SSE
Cosmos 2297 3.8 20:41:19 10° NNW 20:47:06 80° WSW 20:51:24 18° SSE
Cosmos 1634 Rocket 4.0 20:41:02 10° N 20:47:23 85° E 20:52:38 15° S
Cosmos 2112 Rocket 4.2 20:44:37 10° SSW 20:49:57 79° WNW 20:55:17 10° NNE
USA 290 4.0 20:48:30 10° NW 20:51:13 25° WSW 20:53:34 12° SSW
Cosmos 1766 Rocket 3.8 20:47:36 10° NNW 20:52:02 71° W 20:55:32 16° S
USA 229 DEB 4.0 20:48:15 10° NW 20:55:40 85° NE 21:01:46 19° SE
USA 229 4.0 20:48:20 10° NW 20:55:46 85° NE 21:01:53 19° SE
Cosmos 1726 2.0 20:54:24 10° N 20:57:28 49° ENE 20:58:35 31° SE
Spot 2 Rocket 3.7 20:54:06 16° S 20:58:08 68° WSW 21:03:11 10° NNW
Cosmos 1680 Rocket 4.2 20:55:04 10° SW 21:00:16 57° WNW 21:05:29 10° NNE
Meteor 2-6 Rocket 4.2 20:58:31 10° S 21:04:07 88° E 21:09:39 10° NNE
USA 32 4.3 21:01:19 10° SSW 21:06:30 68° W 21:11:44 10° N
Tsikada Rocket 4.5 21:02:57 10° SSW 21:09:02 61° WNW 21:15:15 10° N
MetOp-A 3.6 21:11:24 26° SSE 21:13:51 85° ENE 21:18:37 10° NNW
Sich 1 3.7 21:09:51 10° N 21:14:00 41° ENE 21:15:51 27° SE
USA 276 1.9 21:13:27 10° W 21:15:14 44° WSW 21:15:14 44° WSW
SL-16 R/B 2.9 21:10:14 10° SW 21:15:48 56° WNW 21:21:25 10° NNE
Cosmos 2263 4.2 21:10:53 10° NNW 21:16:35 82° WSW 21:20:00 25° SSE
MOS 1 Rocket 3.8 21:13:56 19° S 21:17:27 61° W 21:22:39 10° NNW
Cosmos 1603 4.3 21:15:41 25° SSE 21:18:16 38° ESE 21:23:29 10° NE
Ariane Rocket 3.8 21:16:49 16° SSW 21:20:39 45° W 21:25:33 10° NNW
Cosmos 1536 2.7 21:16:48 10° N 21:20:41 77° E 21:22:15 35° SSE
Lacrosse 5 3.3 21:16:33 10° WNW 21:20:45 26° SW 21:23:08 18° SSW
Cosmos 2180 Rocket 4.5 21:15:39 10° N 21:21:53 78° E 21:25:40 25° SSE
Lacrosse 5 rocket 2.6 21:18:04 10° W 21:22:11 45° NNW 21:26:14 10° NE
USA 267 4.3 21:17:50 10° ENE 21:22:48 23° SE 21:23:24 22° SE
Cosmos 1452 Rocket 3.5 21:18:43 10° NNW 21:23:59 83° ENE 21:26:45 29° SSE
Cosmos 1408 Rocket 3.5 21:19:37 10° N 21:24:05 83° ENE 21:26:12 31° SSE
Cosmos 44 4.4 21:20:13 10° NW 21:24:27 31° WSW 21:26:45 20° SSW
Spot 1 4.0 21:20:42 10° NNE 21:24:45 76° WNW 21:27:36 19° SSW
Meteor 1-27 Rocket 4.0 21:22:18 26° SSE 21:25:05 50° E 21:30:24 10° NNE
Okean 1 3.3 21:25:59 37° SSE 21:27:14 58° E 21:31:03 10° NNE
Cosmos 2221 4.3 21:24:09 10° SW 21:27:58 30° WNW 21:31:48 10° N
Cosmos 1340 3.3 21:24:59 10° N 21:28:08 34° ENE 21:28:49 30° E
Cosmos 2369 Rocket 2.7 21:23:46 10° NW 21:29:10 50° WSW 21:32:23 23° S
Cosmos 2084 4.4 21:29:34 10° WNW 21:32:51 29° WSW 21:33:53 25° SSW
FALCON 9 R/B 4.4 21:29:44 10° WSW 21:36:38 37° S 21:57:47 10° ESE
USA 306 3.2 21:39:00 10° WNW 21:42:48 54° NNE 21:45:08 22° E
Cosmos 921 Rocket 4.4 21:39:00 10° SW 21:43:10 38° WNW 21:47:24 10° N
GEOS 3 Rocket 4.4 21:40:51 10° NE 21:45:54 53° NW 21:50:52 10° WSW
ATLAS 3B R/B 4.4 21:45:58 10° WNW 21:52:08 26° WSW 21:57:02 14° SSW
Landsat 5 4.4 21:48:51 10° N 21:52:23 39° WNW 21:54:54 17° SW
Meteor 2-17 Rocket 4.4 21:50:27 29° S 21:53:44 77° E 21:59:48 10° NNE
SL-8 R/B 3.7 21:50:32 10° SW 21:55:10 54° SSE 21:59:50 10° E
Terra 4.0 21:53:03 10° SW 21:56:17 18° W 21:59:30 10° NW
Cosmos 1500 Rocket 3.8 21:52:08 10° NNW 21:56:24 62° W 21:57:58 36° SSW
Cosmos 1943 3.3 21:53:57 13° SW 21:59:03 75° WNW 22:04:46 10° NNE
Cosmos 1733 3.0 21:56:02 10° NNW 21:59:33 72° W 22:00:07 57° SSW
Spot 4 4.5 21:58:25 31° ESE 22:00:14 45° ENE 22:04:47 10° N
USA 234 3.9 21:53:59 10° E 22:00:20 55° NNE 22:06:41 10° NW
ALOS 2 3.8 21:58:50 24° ESE 22:00:24 31° ENE 22:04:18 10° N
Meteor 2-4 Rocket 4.2 22:00:28 33° SE 22:02:42 48° E 22:08:22 10° NNE
Cosmos 1048 Rocket 4.5 21:59:01 13° SW 22:03:28 57° WNW 22:08:32 10° NNE
H-2A R/B 2.6 22:02:30 44° SE 22:03:34 61° ENE 22:07:44 10° N
Cosmos 1805 Rocket 3.8 22:01:00 10° NNW 22:05:20 61° W 22:06:48 38° SSW
IRIDIUM 104 4.3 22:01:02 10° N 22:06:16 72° E 22:08:14 39° SSE
Lacrosse 4 Rocket 3.2 22:04:51 10° NNW 22:08:16 25° NE 22:10:34 16° E
Cosmos 1151 Rocket 2.9 22:08:37 46° S 22:09:53 85° E 22:14:16 10° N
Cosmos 1092 Rocket 4.1 22:10:25 34° SSE 22:13:06 61° E 22:19:19 10° NNE
Cosmos 1666 Rocket 3.7 22:09:05 10° N 22:13:22 58° ENE 22:14:23 45° SE
Cosmos 1428 Rocket 4.4 22:11:51 33° S 22:14:45 80° E 22:20:53 10° N
Cosmos 1302 Rocket 3.9 22:10:09 10° NNW 22:15:23 87° WSW 22:17:13 42° SSE
IRIDIUM 114 4.3 22:10:10 10° N 22:15:26 86° E 22:17:22 40° S
Cosmos 1656 4.4 22:10:53 10° NNW 22:16:06 44° NE 22:19:03 24° ESE
Cosmos 1633 Rocket 3.4 22:12:43 10° N 22:17:04 53° ENE 22:18:08 42° ESE
ISS -3.2 22:13:56 10° WNW 22:16:33 45° WSW 22:16:33 45° WSW
ARIANE 5 R/B 2.7 22:16:04 44° SSW 22:17:16 64° WSW 22:21:35 10° NNW
Cosmos 1340 Rocket 3.0 22:17:22 43° SW 22:18:30 67° WNW 22:22:30 10° N
USA 59 Rocket 0.4 22:17:11 10° NW 22:20:57 59° NE 22:22:59 31° ESE
NOSS 2-1 (E) 3.9 22:18:02 10° NW 22:21:48 60° NE 22:23:49 32° ESE
MINOTAUR 4 R/B 4.2 22:19:21 10° N 22:22:15 48° WNW 22:22:21 48° W
Cosmos 1992 Rocket 4.3 22:18:34 10° NNW 22:23:45 59° ENE 22:25:48 35° SE
IRIDIUM 103 4.3 22:19:21 10° N 22:24:35 80° W 22:26:30 40° S
H-2A R/B 3.8 22:22:14 10° NE 22:25:33 20° E 22:25:53 20° E
CZ-2C R/B 4.0 22:21:02 10° N 22:25:33 64° WNW 22:27:22 34° SW
Cosmos 1697 Rocket 4.4 22:21:53 10° NNW 22:26:40 27° NE 22:31:17 10° ESE
Cosmos 614 Rocket 4.1 22:27:45 44° SSE 22:29:09 60° ESE 22:34:18 10° NNE
Cosmos 2195 Rocket 4.4 22:27:33 34° S 22:30:25 87° W 22:36:34 10° N
Cosmos 1766 3.8 22:26:56 10° N 22:30:30 41° ENE 22:30:52 39° E
NOSS 2-1 (D) 3.5 22:29:38 10° NW 22:33:26 77° NE 22:34:55 43° SE
Cosmos 1470 4.3 22:31:17 10° NNE 22:34:17 23° ENE 22:34:54 22° E
Nadezhda 4 Rocket 4.5 22:30:39 23° SW 22:34:28 54° WNW 22:40:36 10° N
Cosmos 1805 3.6 22:36:14 10° NNW 22:39:48 46° W 22:40:09 45° WSW
Spot 2 4.2 22:50:57 52° SSW 22:51:58 72° WSW 22:56:45 10° NNW
Cosmos 1975 3.5 22:53:00 10° NNW 22:56:44 41° W 22:57:09 39° WSW
NOSS 3-3 (A) 4.1 22:59:40 41° SSE 23:00:46 46° ESE 23:06:43 10° NE
Lacrosse 5 rocket 3.7 22:57:46 10° WNW 23:01:20 25° N 23:04:48 10° NE
Cosmos 1626 2.4 23:04:41 50° WNW 23:04:41 50° WNW 23:07:41 10° N
Cosmos 1269 Rocket 4.0 23:04:35 48° SSE 23:05:54 66° ESE 23:11:09 10° NNE
USA 267 3.1 23:00:01 10° ENE 23:06:34 72° SE 23:10:42 24° SW
Cosmos 1674 2.9 23:07:50 52° ENE 23:07:50 52° ENE 23:10:59 10° NNE
NOSS 2-1 (C) 3.7 23:04:48 10° NW 23:08:39 58° SW 23:09:07 55° SSW
Cosmos 2082 Rocket 4.3 23:08:47 11° ESE 23:10:16 12° E 23:12:16 10° ENE
PSLV R/B 3.7 23:08:37 10° NNE 23:13:13 70° ESE 23:13:59 57° SSE
USA 306 3.8 23:12:50 10° WNW 23:15:15 31° W 23:15:15 31° W
Cosmos 1833 Rocket 3.2 23:17:10 38° SE 23:18:24 44° ESE 23:23:42 10° NE
Cosmos 44 Rocket 4.3 23:17:48 10° NNW 23:22:34 43° NE 23:26:07 16° ESE
S3M 4.1 23:19:18 10° N 23:25:42 74° E 23:28:27 36° SSE
NOSS 3-3 (C) 3.8 23:26:06 45° S 23:27:46 66° SE 23:34:04 10° NE
SL-24 R/B 4.2 23:25:58 10° N 23:30:23 78° WNW 23:31:32 51° SSW
Cosmos 2285 Rocket 4.5 23:29:13 35° SSE 23:31:19 47° ESE 23:37:20 10° NNE
Cosmos 1515 Rocket 3.6 23:31:37 55° SW 23:32:22 68° W 23:36:42 10° N
GP-B 3.4 23:30:42 10° N 23:35:04 57° E 23:35:54 48° SE
ALOS 2 3.7 23:36:13 30° WSW 23:36:43 31° W 23:40:39 10° NNW
Cosmos 1553 Rocket 4.3 23:31:37 10° NNW 23:37:30 53° W 23:39:39 36° SW
SL-8 R/B 3.6 23:32:43 10° W 23:37:30 90° SSE 23:42:18 10° E
Cosmos 1470 Rocket 4.5 23:37:04 10° NNW 23:41:08 35° W 23:41:47 33° WSW
Cosmos 1869 Rocket 3.5 23:37:48 10° N 23:42:09 77° E 23:42:58 57° SSE
USA 234 3.2 23:38:50 23° SE 23:43:14 72° SW 23:49:49 10° WNW
Meteor 1-13 Rocket 4.4 23:41:22 41° S 23:43:30 72° E 23:49:24 10° NNE
Cosmos 1733 Rocket 4.4 23:41:20 10° N 23:45:14 32° ENE 23:46:57 24° ESE
Lacrosse 4 Rocket 1.8 23:42:49 10° NW 23:46:28 45° WSW 23:46:28 45° WSW
